AirNav   Everest Fuels
 
 950 users online  

0GE0 Pinewood Airport
Douglasville, Georgia, USA

GOING TO DOUGLASVILLE?


FAA INFORMATION EFFECTIVE 10 SEPTEMBER 2020

Location

FAA Identifier: 0GE0
Lat/Long: 33-46-55.3840N 084-48-02.7750W
33-46.923067N 084-48.046250W
33.7820511,-84.8007708
(estimated)
Elevation: 1085 ft. / 330.7 m (surveyed)
Variation: 02W (1985)
From city: 3 miles NW of DOUGLASVILLE, GA
Time zone: UTC -4 (UTC -5 during Standard Time)
Zip code: 30134

Airport Operations

Airport use: Private use. Permission required prior to landing
Activation date: 08/1972
Control tower: no
ARTCC: ATLANTA CENTER
FSS: MACON FLIGHT SERVICE STATION
Attendance: CONTINUOUS
Wind indicator: yes
Segmented circle: no

Airport Communications

WX AWOS-3 at PUJ (10 nm NW): 126.225 (770-445-3870)
WX ASOS at FTY (14 nm E): PHONE 404-696-5660
WX AWOS-3PT at RYY (17 nm NE): PHONE 770-425-3406
WX AWOS-3 at CTJ (20 nm SW): 118.175 (770-214-9667)

Nearby radio navigation aids

VOR radial/distance  VOR name  Freq  Var
ATLr302/20.4ATLANTA VORTAC116.9005W
PDKr262/25.6PEACHTREE VOR/DME116.6005W
RMGr144/27.8ROME VORTAC115.4001E

 
NDB name  Hdg/Dist  Freq  Var  ID
FLANC283/8.234405WFT ..-. -
CARROLLTON056/21.027804WGPQ --. .--. --.-
COWETA COUNTY355/31.823403WEQQ . --.- --.-
CHERO214/32.241505WDJD -.. .--- -..
PECAT336/32.931605WFFC ..-. ..-. -.-.

Airport Services

Parking: hangars
Airframe service: NONE
Powerplant service: NONE
Bottled oxygen: NONE
Bulk oxygen: NONE

Runway Information

Runway 2/20

Dimensions: 2000 x 30 ft. / 610 x 9 m
Surface: turf
RUNWAY 2  RUNWAY 20
Traffic pattern: leftleft
Runway end identifier lights: nono
Obstructions: tree
+30' TREE 40' RIGHT OF CENTERLINE.
trees
+50' TREES 35' FROM BOTH SIDES OF RWY AT THR.

Airport Ownership and Management from official FAA records

Ownership: Privately-owned
Owner: MARK BAGWELL & BOB MEADOWS
544 JACK MEADOWS ROAD
DOUGLASVILLE, GA 30134
Phone 770-949-9635
Manager: MARK BAGWELL
593 OLD MTN RD
KENNESAW, GA 30152
Phone 424-271-2677

Airport Operational Statistics

Aircraft based on the field: 6
Single engine airplanes: 6
    
Aircraft operations: avg 50/month *
83% local general aviation
17% transient general aviation
* for 12-month period ending 19 September 1978

Additional Remarks

EXCESSIVE GRADE CHANGES BETWEEN RWY ENDS AND CENTER OF RWY.
FOR CD CTC ATLANTA APCH AT 678-364-6131.

Instrument Procedures

There are no published instrument procedures at 0GE0.

Some nearby airports with instrument procedures:

KPUJ - Paulding Northwest Atlanta Airport (10 nm NW)
KFTY - Fulton County Airport-Brown Field (14 nm E)
KMGE - Dobbins Air Reserve Base (16 nm NE)
KRYY - Cobb County International Airport-McCollum Field (17 nm NE)
KCTJ - West Georgia Regional Airport-O V Gray Field (20 nm SW)
 
Loc | Ops | Rwys | IFR | FBO | Links
Com | Nav | Svcs | Stats | Notes
Area around 0GE0 (Pinewood Airport)
 
Road maps at: MapQuest Bing Google
 
Aerial photo
WARNING: Photo may not be current or correct
Aerial photo of 0GE0 (Pinewood Airport)
Photo by Bob Meadows
Photo taken 14-Apr-2010
looking Northeast.

Do you have a better or more recent aerial photo of Pinewood Airport that you would like to share? If so, please send us your photo.

 
Sectional chart

 
Airport distance calculator
Flying to Pinewood Airport? Find the distance to fly.

From to 0GE0

Sunrise and sunset
Times for 22-Sep-2020
 Local
(UTC-4)
 Zulu
(UTC)
Morning civil twilight07:0411:04
Sunrise07:2911:29
Sunset19:3423:34
Evening civil twilight19:5923:59

Current date and time
Zulu (UTC)  22-Sep-2020 12:02:28
Local (UTC-4)  22-Sep-2020 08:02:28
 
METAR
KPUJ 
10nm NW 
221155Z AUTO 11003KT 10SM CLR 09/09 A3030 RMK AO2
KFTY 
14nm E 
221153Z 00000KT 10SM CLR 10/08 A3030 RMK AO2 SLP258 T01000083 10122 20100 53011
KMGE 
16nm NE 
221156Z 08002KT 10SM SCT250 11/08 A3030 RMK AO2A SLP260 T01060084 10126 20100 52010 $
KRYY 
17nm NE 
221150Z 09003KT 10SM CLR 09/08 A3032 RMK AO2 SLP985 T00940083 10133 20089 53009 $
KATL 
20nm SE 
221152Z 08007KT 10SM FEW200 SCT250 11/09 A3029 RMK AO2 SLP257 T01110089 10133 20106 53009
KCTJ 
20nm SW 
221155Z AUTO 00000KT 10SM CLR 09/08 A3033 RMK AO2 T00900079
TAF
KFTY 
14nm E 
220531Z 2206/2306 VRB03KT P6SM FEW250 FM221500 08005KT P6SM SCT250 FM230000 00000KT P6SM SCT150 BKN250
KMGE 
16nm NE 
220500Z 2205/2311 08006KT 9999 SCT250 QNH3030INS BECMG 2308/2309 VRB06KT 9999 BKN100 QNH3009INS TX24/2220Z TN12/2212Z
KRYY 
17nm NE 
220531Z 2206/2306 08007KT P6SM FEW250 FM221800 08003KT P6SM SCT250 FM230000 00000KT P6SM SCT150 BKN250
KATL 
20nm SE 
221131Z 2212/2318 08009KT P6SM FEW250 FM221800 07005KT P6SM SCT250 FM230000 VRB03KT P6SM SCT150 BKN250 FM230600 VRB03KT P6SM BKN080 BKN150 FM231500 23005KT P6SM SCT045 BKN080
NOTAMs
Click for the latest NOTAMs
NOTAMs are issued by the DoD/FAA and will open in a separate window not controlled by AirNav.

 

 
 

Would you like to see your business listed on this page?

 If your business provides an interesting product or service to pilots, flight crews, aircraft, or users of the Pinewood Airport, you should consider listing it here.  To start the listing process, click on the button below
 
Add a business
 

Other Pages about Pinewood Airport

Update a link
 
Copyright © AirNav, LLC. All rights reserved. Privacy Policy  Contact